Location: Essen
(51.4609°N, 7.0127°E)
Time: 09:27:36
(UTC+01:00)

Envisat - Visible Passes

Search period start: 24 February 2018 00:00
Search period end: 06 March 2018 00:00
Orbit: 764 x 766 km, 98.2° (Epoch: 23 February)

Date Brightness Start Highest point End Pass type
(mag) Time Alt. Az. Time Alt. Az. Time Alt. Az.
24 Feb 2.9 19:44:57 10° SSE 19:50:01 87° ENE 19:55:09 10° NNW visible
24 Feb 5.7 21:26:43 10° WSW 21:29:46 16° W 21:32:48 10° NW visible
25 Feb 3.3 19:08:35 10° SE 19:13:25 46° ENE 19:18:16 10° N visible
25 Feb 4.8 20:48:09 10° SSW 20:52:36 30° W 20:57:06 10° NNW visible
26 Feb 3.5 20:10:39 10° S 20:15:39 59° W 20:20:43 10° NNW visible
27 Feb 2.9 19:33:51 10° SSE 19:38:54 72° ENE 19:43:59 10° N visible
27 Feb 5.5 21:14:52 10° SW 21:18:28 19° W 21:22:05 10° NW visible
28 Feb 3.5 18:57:40 10° SE 19:02:20 38° ENE 19:07:01 10° N visible
28 Feb 4.4 20:36:42 10° SSW 20:41:23 37° W 20:46:06 10° NNW visible
01 Mar 3.2 19:59:25 10° S 20:04:29 72° WSW 20:09:36 10° NNW visible
01 Mar 5.9 21:42:41 10° WSW 21:44:27 12° W 21:46:12 10° WNW visible
02 Mar 3.0 19:22:48 10° SSE 19:27:47 60° ENE 19:32:48 10° N visible
02 Mar 5.2 21:03:11 10° SW 21:07:12 23° W 21:11:15 10° NW visible
03 Mar 3.7 18:46:49 10° SE 18:51:17 32° ENE 18:55:45 10° N visible
03 Mar 4.1 20:25:19 10° S 20:30:10 45° W 20:35:04 10° NNW visible
04 Mar 3.0 19:48:15 10° SSE 19:53:20 87° WSW 19:58:28 10° NNW visible
04 Mar 5.8 21:30:23 10° WSW 21:33:08 14° W 21:35:54 10° NW visible
05 Mar 3.2 19:11:49 10° SE 19:16:42 49° ENE 19:21:36 10° N visible
05 Mar 4.9 20:51:37 10° SSW 20:55:57 28° W 21:00:20 10° NW visible
